DW9643 Weather Reports


time (UTC)temp
F
wind
direction
speed
knots
gust
knots
rain 1hr
in
rain 24hr
in
rain mn
in
humidity
%
barometer
mb
20260503200105 61 234 10.4 16.5 0.00 0.00 0.00 40 1017.1
20260503194557 61 227 6.1 13.0 0.00 0.00 0.00 45 1017.5
20260503193056 60 177 4.3 15.6 0.00 0.00 0.00 42 1017.8
20260503191558 60 189 10.4 17.4 0.00 0.00 0.00 39 1017.9
20260503190108 60 201 6.1 13.0 0.00 0.00 0.00 42 1018.3
20260503184602 60 180 3.5 13.9 0.00 0.00 0.00 37 1018.3
20260503183101 60 180 10.4 20.0 0.00 0.00 0.00 39 1018.8
20260503181601 59 187 9.6 15.6 0.00 0.00 0.00 39 1018.9
20260503180059 59 217 7.0 14.8 0.00 0.00 0.00 43 1019.1
20260503174555 59 202 10.4 16.5 0.00 0.00 0.00 43 1019.2
20260503173100 59 204 7.0 14.8 0.00 0.00 0.00 44 1019.5
20260503171603 59 203 7.0 13.9 0.00 0.00 0.00 43 1019.8
20260503100110 33 0 0.0 0.0 0.00 0.00 0.00 92 1019.9
20260503081559 33 0 0.0 0.0 0.00 0.00 0.00 91 1019.8
20260503071601 34 0 0.0 0.0 0.00 0.00 0.00 90 1019.7
20260503060119 35 0 0.0 0.0 0.00 0.00 0.00 88 1020.2
20260503054622 35 0 0.0 0.0 0.00 0.00 0.00 88 1020.2
20260503053058 35 0 0.0 0.0 0.00 0.00 0.00 87 1020.2
20260503051557 36 0 0.0 0.0 0.00 0.00 0.00 87 1020.2
20260503050101 36 0 0.0 0.0 0.00 0.00 0.00 86 1020.2
20260503044557 36 0 0.0 0.0 0.00 0.00 0.00 85 1020.1
20260503043058 37 0 0.0 0.0 0.00 0.00 0.00 84 1020.1
20260503041559 37 0 0.0 0.9 0.00 0.00 0.00 83 1020.1
20260503040105 38 0 0.0 0.0 0.00 0.00 0.00 82 1020.3
20260503034615 38 0 0.0 0.0 0.00 0.00 0.00 80 1020.4
20260503033106 39 0 0.0 0.0 0.00 0.00 0.00 78 1020.3
20260503031558 40 0 0.0 0.0 0.00 0.00 0.00 75 1020.2
20260503030056 41 0 0.0 0.0 0.00 0.00 0.00 69 1020.3
20260503024556 41 0 0.0 0.9 0.00 0.00 0.00 66 1020.3
20260503023107 42 7 0.0 2.6 0.00 0.00 0.00 65 1020.2
20260503021556 43 0 0.0 0.0 0.00 0.00 0.00 62 1020.1
20260503020056 44 0 0.0 2.6 0.00 0.00 0.00 58 1019.9
20260503014600 45 0 0.0 3.5 0.00 0.00 0.00 56 1019.8
20260503013058 46 2 1.7 5.2 0.00 0.00 0.00 54 1019.6
20260503011604 47 0 0.0 5.2 0.00 0.00 0.00 52 1019.4
20260503010056 47 7 0.9 6.1 0.00 0.00 0.00 50 1019.3
20260503004558 48 349 2.6 7.8 0.00 0.00 0.00 48 1019.1
20260503003056 49 341 2.6 9.6 0.00 0.00 0.00 47 1018.9
20260503001618 49 342 2.6 7.8 0.00 0.00 0.00 46 1018.8
20260503000121 50 325 2.6 10.4 0.00 0.00 0.00 45 1018.7
20260502234606 51 356 4.3 9.6 0.00 0.00 0.00 43 1018.4
20260502233056 51 360 4.3 12.2 0.00 0.00 0.00 45 1018.4
20260502231610 51 325 3.5 10.4 0.00 0.00 0.00 44 1018.4
20260502230057 52 340 4.3 10.4 0.00 0.00 0.00 43 1018.4
20260502224600 53 3 6.1 10.4 0.00 0.00 0.00 38 1018.4
20260502223101 53 336 5.2 13.0 0.00 0.00 0.00 39 1018.4
20260502221556 54 357 5.2 13.0 0.00 0.00 0.00 39 1018.3
20260502220057 55 315 4.3 16.5 0.00 0.00 0.00 41 1018.1
20260502214556 54 266 3.5 12.2 0.00 0.00 0.00 46 1018.1
20260502213106 54 354 4.3 12.2 0.00 0.00 0.00 40 1018.1
20260502211555 54 302 5.2 13.9 0.00 0.00 0.00 39 1018.0
20260502210056 54 326 3.5 11.3 0.00 0.00 0.00 39 1018.0
20260502204616 54 332 7.8 14.8 0.00 0.00 0.00 38 1018.0
20260502203105 54 348 6.1 15.6 0.00 0.00 0.00 38 1018.0
20260502201611 53 307 4.3 14.8 0.00 0.00 0.00 44 1018.2